Waseca, MN

1:18 AM CST on January 23, 2017 (GMT -0600)
Waseca Municipal

Weather History for KACQ - April, 2013

Change the Weather History Date:

Wednesday, April 24, 2013

  Actual Average Record
Temperature  
Mean Temperature 34 °F -  
Max Temperature 46 °F 59 °F 90 °F (1939)
Min Temperature 23 °F 37 °F 20 °F (1918)
Degree Days  
Heating Degree Days 30    
Moisture  
Dew Point 28 °F    
Average Humidity 81    
Maximum Humidity 93    
Minimum Humidity 53    
Precipitation  
Precipitation 0.03 in - - ()
Sea Level Pressure  
Sea Level Pressure 30.03 in    
Wind  
Wind Speed 9 mph (SW)    
Max Wind Speed 25 mph    
Max Gust Speed 46 mph    
Visibility 9 miles    
Events Rain , Snow    
Averages and records for this station are not official NWS values.
T = Trace of Precipitation, MM = Missing Value Source: NWS Daily Summary

Daily Weather History Graph

Daily Weather History Graph

Search for Another Location

Airport or City:

Trip Planner

Search our weather history database for the weather conditions in past years. The results will help you decide how hot, cold, wet, or windy it might be!

Date:

Astronomy

Apr. 24, 2013 Rise Set
Actual Time 6:15 AM CDT 8:09 PM CDT
Civil Twilight 5:44 AM CDT 8:40 PM CDT
Nautical Twilight 5:06 AM CDT 9:18 PM CDT
Astronomical Twilight 4:25 AM CDT 10:00 PM CDT
Moon 7:12 PM CDT (4/24) 5:22 AM CDT (4/24)
Length of Visible Light 14h 55m
Length of Day
13h 53m
Waxing Gibbous, 98% of the Moon is Illuminated
Apr 24
Waxing Gibbous
Apr 25
Full
May 2
Last Quarter
May 9
New
May 17
First Quarter

Hourly Weather History & Observations

Time (CDT) Temp. Windchill Dew Point Humidity Pressure Visibility Wind Dir Wind Speed Gust Speed Precip Events Conditions
12:16 AM 30.2 °F 26.7 °F 26.6 °F 86% 30.10 in 10.0 mi West 3.5 mph - N/A   Clear
12:37 AM 26.6 °F 22.6 °F 23.0 °F 86% 30.10 in 10.0 mi WSW 3.5 mph - N/A   Clear
12:56 AM 26.6 °F 22.6 °F 23.0 °F 86% 30.10 in 10.0 mi WSW 3.5 mph - N/A   Clear
1:17 AM 26.6 °F 21.2 °F 23.0 °F 86% 30.10 in 7.0 mi WSW 4.6 mph - N/A   Clear
1:37 AM 24.8 °F 19.1 °F 23.0 °F 93% 30.09 in 10.0 mi SW 4.6 mph - N/A   Clear
1:56 AM 24.8 °F 20.5 °F 23.0 °F 93% 30.09 in 10.0 mi SW 3.5 mph - N/A   Clear
2:17 AM 24.8 °F 16.9 °F 23.0 °F 93% 30.09 in 10.0 mi WSW 6.9 mph - N/A   Clear
2:37 AM 24.8 °F 19.1 °F 23.0 °F 93% 30.09 in 10.0 mi SW 4.6 mph - N/A   Clear
2:56 AM 24.8 °F 20.5 °F 23.0 °F 93% 30.09 in 7.0 mi SW 3.5 mph - N/A   Clear
3:17 AM 24.8 °F 17.9 °F 23.0 °F 93% 30.09 in 10.0 mi SW 5.8 mph - N/A   Clear
3:37 AM 24.8 °F 19.1 °F 23.0 °F 93% 30.09 in 7.0 mi WSW 4.6 mph - N/A   Clear
3:56 AM 23.0 °F 18.4 °F 21.2 °F 93% 30.08 in 7.0 mi WSW 3.5 mph - N/A   Clear
4:17 AM 24.8 °F 20.5 °F 23.0 °F 93% 30.08 in 10.0 mi SW 3.5 mph - N/A   Clear
4:37 AM 23.0 °F 15.8 °F 21.2 °F 93% 30.08 in 10.0 mi SW 5.8 mph - N/A   Clear
4:56 AM 23.0 °F 17.0 °F 21.2 °F 93% 30.08 in 10.0 mi SW 4.6 mph - N/A   Clear
5:17 AM 23.0 °F 17.0 °F 21.2 °F 93% 30.08 in 10.0 mi SW 4.6 mph - N/A   Clear
5:37 AM 23.0 °F 18.4 °F 21.2 °F 93% 30.07 in 7.0 mi SW 3.5 mph - N/A   Clear
5:56 AM 23.0 °F 18.4 °F 21.2 °F 93% 30.07 in 10.0 mi SSW 3.5 mph - N/A   Clear
6:17 AM 23.0 °F 17.0 °F 21.2 °F 93% 30.07 in 7.0 mi SSW 4.6 mph - N/A   Clear
6:36 AM 23.0 °F 17.0 °F 21.2 °F 93% 30.07 in 7.0 mi South 4.6 mph - N/A   Clear
6:57 AM 24.8 °F 19.1 °F 23.0 °F 93% 30.07 in 7.0 mi SSW 4.6 mph - N/A   Clear
7:17 AM 24.8 °F 17.9 °F 23.0 °F 93% 30.07 in 7.0 mi SSW 5.8 mph - N/A   Clear
7:36 AM 26.6 °F 18.2 °F 24.8 °F 93% 30.06 in 10.0 mi SSW 8.1 mph - N/A   Clear
7:57 AM 30.2 °F 23.4 °F 26.6 °F 86% 30.07 in 10.0 mi SSW 6.9 mph - N/A   Clear
8:16 AM 30.2 °F 21.9 °F 26.6 °F 86% 30.06 in 10.0 mi SW 9.2 mph - N/A   Clear
8:36 AM 32.0 °F 24.2 °F 28.4 °F 87% 30.06 in 10.0 mi SSW 9.2 mph - N/A   Clear
8:57 AM 32.0 °F 24.2 °F 26.6 °F 80% 30.06 in 10.0 mi SSW 9.2 mph - N/A   Clear
9:16 AM 33.8 °F 26.4 °F 28.4 °F 81% 30.06 in 10.0 mi SSW 9.2 mph - N/A   Clear
9:36 AM 33.8 °F 26.4 °F 26.6 °F 75% 30.06 in 10.0 mi SW 9.2 mph - N/A   Clear
9:57 AM 35.6 °F 29.2 °F 28.4 °F 75% 30.05 in 10.0 mi SW 8.1 mph - N/A   Clear
10:16 AM 35.6 °F 29.2 °F 28.4 °F 75% 30.05 in 10.0 mi SW 8.1 mph - N/A   Clear
10:37 AM 35.6 °F 28.6 °F 28.4 °F 75% 30.05 in 10.0 mi SW 9.2 mph - N/A   Clear
10:57 AM 35.6 °F 28.0 °F 28.4 °F 75% 30.05 in 10.0 mi SW 10.4 mph - N/A   Clear
11:16 AM 35.6 °F 27.1 °F 28.4 °F 75% 30.05 in 10.0 mi SW 12.7 mph - N/A   Clear
11:37 AM 37.4 °F 29.8 °F 30.2 °F 75% 30.05 in 10.0 mi WSW 11.5 mph - N/A   Clear
11:57 AM 37.4 °F 29.8 °F 30.2 °F 75% 30.05 in 10.0 mi SW 11.5 mph - N/A   Clear
12:16 PM 41.0 °F 33.1 °F 32.0 °F 70% 30.05 in 10.0 mi SW 15.0 mph - N/A   Clear
12:37 PM 41.0 °F 33.1 °F 30.2 °F 65% 30.04 in 10.0 mi SW 15.0 mph - N/A   Clear
12:57 PM 41.0 °F 33.1 °F 30.2 °F 65% 30.03 in 10.0 mi SW 15.0 mph - N/A   Clear
1:16 PM 42.8 °F 34.3 °F 30.2 °F 61% 30.03 in 10.0 mi SW 19.6 mph - N/A   Clear
1:37 PM 42.8 °F 35.1 °F 30.2 °F 61% 30.01 in 10.0 mi SW 16.1 mph - N/A   Clear
1:57 PM 42.8 °F 34.5 °F 32.0 °F 66% 30.01 in 10.0 mi SW 18.4 mph - N/A   Clear
2:17 PM 42.8 °F 33.8 °F 32.0 °F 66% 30.01 in 10.0 mi SW 21.9 mph 25.3 mph N/A   Scattered Clouds
2:37 PM 44.6 °F 36.1 °F 30.2 °F 57% 29.99 in 10.0 mi SW 21.9 mph 27.6 mph N/A   Scattered Clouds
2:56 PM 44.6 °F 36.4 °F 32.0 °F 61% 29.99 in 10.0 mi SW 20.7 mph 26.5 mph N/A   Clear
3:17 PM 44.6 °F 35.7 °F 30.2 °F 57% 29.98 in 10.0 mi SSW 24.2 mph 31.1 mph N/A   Clear
3:37 PM 44.6 °F 36.1 °F 30.2 °F 57% 29.98 in 10.0 mi SW 21.9 mph - N/A   Clear
3:56 PM 46.4 °F 38.5 °F 32.0 °F 57% 29.98 in 10.0 mi WSW 21.9 mph 26.5 mph N/A   Scattered Clouds
4:17 PM 44.6 °F 36.4 °F 32.0 °F 61% 29.97 in 10.0 mi SW 20.7 mph 27.6 mph N/A   Mostly Cloudy
4:37 PM 44.6 °F 36.6 °F 30.2 °F 57% 29.97 in 10.0 mi SW 19.6 mph 23.0 mph N/A   Mostly Cloudy
4:56 PM 44.6 °F 36.6 °F 28.4 °F 53% 29.96 in 10.0 mi SW 19.6 mph 23.0 mph N/A   Mostly Cloudy
5:17 PM 44.6 °F 37.2 °F 30.2 °F 57% 29.94 in 10.0 mi SW 17.3 mph - N/A   Overcast
5:37 PM 44.6 °F 38.1 °F 32.0 °F 61% 29.92 in 10.0 mi SSW 13.8 mph - N/A   Overcast
5:56 PM 42.8 °F 33.1 °F 32.0 °F 66% 29.93 in 7.0 mi WSW 25.3 mph 46.0 mph N/A   Drizzle
6:17 PM 35.6 °F 25.9 °F 32.0 °F 87% 29.96 in 1.8 mi West 16.1 mph 40.3 mph 0.02 in Rain Rain
6:37 PM 37.4 °F 28.5 °F 33.8 °F 87% 29.95 in 10.0 mi West 15.0 mph - 0.03 in   Overcast
6:56 PM 37.4 °F 28.9 °F 33.8 °F 87% 29.95 in 10.0 mi West 13.8 mph 18.4 mph 0.03 in Rain Light Rain
7:17 PM 37.4 °F 28.2 °F 33.8 °F 87% 29.96 in 10.0 mi West 16.1 mph - N/A   Overcast
7:37 PM 37.4 °F 28.2 °F 33.8 °F 87% 29.96 in 10.0 mi West 16.1 mph - N/A   Overcast
7:56 PM 35.6 °F 25.5 °F 32.0 °F 87% 29.98 in 10.0 mi WNW 17.3 mph - N/A   Overcast
8:17 PM 35.6 °F 28.0 °F 32.0 °F 87% 29.98 in 10.0 mi West 10.4 mph - N/A   Scattered Clouds
8:37 PM 35.6 °F 27.5 °F 32.0 °F 87% 29.98 in 10.0 mi West 11.5 mph - N/A   Scattered Clouds
8:56 PM 35.6 °F 26.6 °F 32.0 °F 87% 29.99 in 10.0 mi West 13.8 mph - N/A   Overcast
9:56 PM 33.8 °F 27.7 °F 32.0 °F 93% 30.02 in 10.0 mi WSW 6.9 mph - N/A   Scattered Clouds
10:17 PM 33.8 °F 25.3 °F 32.0 °F 93% 30.03 in 10.0 mi WSW 11.5 mph - N/A   Mostly Cloudy
10:36 PM 35.6 °F 28.6 °F 33.8 °F 93% 30.03 in 10.0 mi WSW 9.2 mph - N/A   Overcast
10:56 PM 35.6 °F 27.1 °F 33.8 °F 93% 30.03 in 10.0 mi WSW 12.7 mph - N/A   Overcast
11:17 PM 35.6 °F 26.6 °F 32.0 °F 87% 30.03 in 10.0 mi West 13.8 mph 19.6 mph N/A   Overcast
11:37 PM 35.6 °F 24.5 °F 32.0 °F 87% 30.03 in 7.0 mi West 20.7 mph 24.2 mph N/A   Drizzle
11:56 PM 33.8 °F 23.9 °F 32.0 °F 93% 30.03 in 3.0 mi West 15.0 mph 18.4 mph N/A Snow Light Snow